Погода в Гражданском

Россия / Ставропольский край     44°13′40″N   42°46′28″E
темп.,
°C
ветер,
м/с
пор.,
м/с
влажн.,
%
обл.,
%
осадки,
мм/ч
давл.,
гПа
погр.,
м
5 марта, пт
пт500:000ююз11640 0.0 102221
03:000ю11640 0.0 102221
06:00−2юз00700 0.0 102021
09:00+2ююз01550 0.0 1019143
12:00+7вюв22380 0.0 1018361
15:00+10в12300 0.0 1017576
18:00+5ссв11517 0.0 101922
21:00+3з11625 0.0 102122
6 марта, сб
сб600:00+2зюз22610 0.0 102022
03:00+2ююз11500 0.0 102022
06:00+2з124233 0.0 101922
09:00+7ююз113320 0.0 101880
12:00+14юв13240 0.0 1015412
15:00+15ссз322618 0.0 1014833
18:00+10ссз1148100 0.0 101322
21:00+8з2257100 0.0 101424
7 марта, вс
вс700:00+6зсз41262100 0.0 1015602
03:00+1зсз91388100 0.2 10191058
06:00−2зсз81285100 0.6 1022986
09:00−2зсз8115592 0.7 1024952
12:000зсз564089 0.0 10251201
15:00+1зсз454251 0.0 10241140
18:00−1сз34560 0.0 1024382
21:00−2з256518 0.0 1026397
8 марта, пн
пн800:00−2з36600 0.0 1025386
03:00−3юз24591 0.0 1024184
06:00−3юз12580 0.0 102346
09:00−1зсз11520 0.0 1022620
12:00+2св12440 0.0 10191026
15:00+3ссв21410 0.0 10171029
18:00+1с23544 0.0 101845
21:000з126441 0.0 102022
9 марта, вт
вт900:00−1юз116523 0.0 102022
03:00−1св006629 0.0 101921
06:00−2ююз00680 0.0 101921
09:00+1вюв22550 0.0 1017442
12:00+5всв11420 0.0 1016887
15:00+7зсз34360 0.0 10151481
18:00+3сз345610 0.0 1015123
21:00+2юз226349 0.0 101734